カタログに戻る

STARLINK-5078

運用中通信VLEO
NORAD 54857·PAYLOAD·🇺🇸 United States

打ち上げ Dec 28, 2022 から Cape Canaveral Space Force Station

Loading…

次のパス (今後24時間)

TLE

最新Source: CelesTrak SupGP

元期: Sep 15, 2026, 02:59 UTC

1 54857C 22177AP  26258.12479167  .00054939  00000+0  19897-2 0  2581
2 54857  43.0003 131.6778 0001548 276.9546  65.9421 15.27553939    18

AllMySatでSTARLINK-5078をリアルタイム追跡

Download on the App Store